Location: Niles Junction
(37.5763°N, 121.9714°W)
Time: 04:23:27
(UTC+00:00)

Cosmos 2322 Rocket - Pass Details

Date: 29 October 2020
Orbit: 832 x 851 km, 71.0° (Epoch: 23 November)

Event Time Altitude Azimuth Distance (km) Brightness Sun altitude
Rises 13:23:22 0° 346° (NNW) 3,415 5.1 -13.8°
Reaches altitude 10° 13:26:05 10° 356° (N) 2,474 4.5 -13.3°
Maximum altitude 13:31:11 33° 60° (ENE) 1,378 3.9 -12.3°
Drops below altitude 10° 13:36:13 10° 124° (SE) 2,450 5.7 -11.3°
Sets 13:38:53 0° 134° (SE) 3,377 6.3 -10.8°
